"Time","Temp","Dewpoint","Humidity","Pressure","Direction","Speed","Gust","Precip","PrecipRate"
"00:04:56","46.6","41.7","83","30.32","146","0","0","0.00","0.00"
"00:09:59","46.4","41.5","83","30.32","146","0","0","0.00","0.00"
"00:14:59","46.3","41.6","83.5","30.32","145","0.2","1.2","0.00","0.00"
"00:19:57","46.2","41.3","83","30.32","146","0","0","0.00","0.00"
"00:24:59","46.1","41.2","83","30.32","146","0","0","0.00","0.00"
"00:29:57","46","41.1","83","30.32","145","0","0","0.00","0.00"
"00:34:59","45.9","41.1","83.5","30.32","145","0","0","0.00","0.00"
"00:39:58","45.6","41","83.8","30.32","145","0.2","2.4","0.00","0.00"
"00:44:57","45.5","40.9","84","30.32","145","0.1","1.2","0.00","0.00"
"00:49:58","45.4","40.8","84","30.32","145","0","0","0.00","0.00"
"00:54:57","45.2","40.8","84.2","30.32","145","0","1.2","0.00","0.00"
"00:59:56","45","40.6","84.1","30.32","145","0.1","1.2","0.00","0.00"
"01:04:56","44.9","40.6","84.8","30.32","145","0","0","0.00","0.00"
"01:09:59","44.7","40.5","85","30.32","145","0","0","0.00","0.00"
"01:14:58","44.5","40.4","85.3","30.32","145","0","0","0.00","0.00"
"01:19:56","44.3","40.4","86","30.32","145","0","0","0.00","0.00"
"01:24:58","44.2","40.3","86.1","30.32","145","0","0","0.00","0.00"
"01:29:56","44","40.4","86.8","30.32","145","0","0","0.00","0.00"
"01:34:59","43.9","40.3","87","30.32","145","0","0","0.00","0.00"
"01:39:58","43.8","40.2","87","30.32","145","0","0","0.00","0.00"
"01:44:56","43.6","40","87","30.32","145","0","0","0.00","0.00"
"01:49:58","43.5","40","87.5","30.32","145","0","0","0.00","0.00"
"01:54:56","43.4","40.1","88","30.32","145","0","0","0.00","0.00"
"01:59:58","43.4","40.1","88","30.32","145","0","0","0.00","0.00"
"02:04:58","43.3","40.2","88.5","30.32","145","0","0","0.00","0.00"
"02:09:56","43.3","40.3","89","30.32","145","0","0","0.00","0.00"
"02:14:59","43.3","40.3","89","30.32","145","0","0","0.00","0.00"
"02:19:57","43.4","40.6","89.7","30.32","145","0","0","0.00","0.00"
"02:24:59","43.6","40.9","90","30.32","145","0","0","0.00","0.00"
"02:29:56","43.7","40.7","89","30.32","145","0","0","0.00","0.00"
"02:34:56","43.7","40.7","89","30.32","145","0","0","0.00","0.00"
"02:39:59","43.9","40.7","88.3","30.32","145","0","0","0.00","0.00"
"02:44:57","44.1","40.8","88","30.32","145","0","0","0.00","0.00"
"02:49:58","44.3","41","87.8","30.32","145","0","0","0.00","0.00"
"02:54:57","44.3","40.7","87","30.32","145","0","0","0.00","0.00"
"02:59:59","44.2","40.6","87","30.32","145","0","0","0.00","0.00"
"03:04:59","44.2","40.7","87.6","30.31","145","0","0","0.00","0.00"
"03:09:57","44.1","40.8","88","30.31","145","0","0","0.00","0.00"
"03:14:56","44.2","40.9","88","30.31","145","0.3","2.4","0.00","0.00"
"03:19:58","43.9","40.3","87","30.31","145","0","1.2","0.00","0.00"
"03:24:56","43.8","40.5","88","30.31","145","0","1.2","0.00","0.00"
"03:29:58","43.7","40.4","88","30.31","145","0","1.2","0.00","0.00"
"03:34:59","43.5","40.2","88","30.31","145","0","0","0.00","0.00"
"03:39:58","43.4","40.1","88","30.31","145","0","0","0.00","0.00"
"03:44:59","43.2","39.9","88","30.31","145","0","0","0.00","0.00"
"03:49:57","43","39.8","88.5","30.31","145","0","0","0.00","0.00"
"03:54:56","42.8","39.7","88.7","30.31","145","0","0","0.00","0.00"
"03:59:57","42.5","39.5","89","30.31","145","0","0","0.00","0.00"
"04:04:57","42.4","39.4","89","30.31","145","0","0","0.00","0.00"
"04:09:59","42.3","39.3","89","30.31","145","0","2.4","0.00","0.00"
"04:14:57","42.1","39.4","89.8","30.31","145","1.7","2.4","0.00","0.00"
"04:19:58","42.2","39.5","90","30.31","145","0.5","2.3","0.00","0.00"
"04:24:56","42.2","39.5","90","30.31","145","0","0","0.00","0.00"
"04:29:58","42.1","39.4","90","30.31","145","0","0","0.00","0.00"
"04:34:57","42","39.3","90","30.31","145","0","0","0.00","0.00"
"04:39:56","41.9","39.2","90","30.31","145","0","0","0.00","0.00"
"04:44:58","41.9","39.2","90","30.31","145","0","0","0.00","0.00"
"04:49:57","41.8","39.1","90","30.31","145","0","2.4","0.00","0.00"
"04:54:59","41.8","39.2","90.6","30.31","145","0.6","2.4","0.00","0.00"
"04:59:57","41.7","39.3","91","30.32","145","0.5","2.4","0.00","0.00"
"05:04:56","41.7","39.3","91","30.32","145","0.3","2.3","0.00","0.00"
"05:09:58","41.6","39.2","91","30.32","145","0","0","0.00","0.00"
"05:14:58","41.6","39.2","91","30.32","145","0","0","0.00","0.00"
"05:19:56","41.4","39","91","30.32","145","0","0","0.00","0.00"
"05:24:58","41.3","38.9","91","30.32","145","0","1.2","0.00","0.00"
"05:29:59","41.1","38.7","91","30.32","145","0","0","0.00","0.00"
"05:34:57","41","38.6","91","30.32","145","0","0","0.00","0.00"
"05:39:56","41","38.6","91","30.32","145","0.2","1.2","0.00","0.00"
"05:44:58","41","38.6","91","30.32","145","0","0","0.00","0.00"
"05:49:59","40.9","38.7","91.5","30.32","145","0","0","0.00","0.00"
"05:54:56","40.9","38.8","92","30.32","145","0","0","0.00","0.00"
"05:59:57","40.8","38.7","92","30.32","145","0","0","0.00","0.00"
"06:04:57","40.6","38.5","92","30.32","145","0","1.2","0.00","0.00"
"06:09:56","40.5","38.4","92","30.32","145","0","1.2","0.00","0.00"
"06:14:59","40.4","38.3","92","30.34","145","0","0","0.00","0.00"
"06:19:56","40.4","38.4","92.1","30.34","145","0","0","0.00","0.00"
"06:24:57","40.4","38.3","92.2","30.34","145","0","0","0.00","0.00"
"06:29:59","40.3","38.2","92.2","30.34","145","0","0","0.00","0.00"
"06:34:57","40.1","38","92","30.33","145","0","0","0.00","0.00"
"06:39:59","40","37.9","92","30.33","145","0","0","0.00","0.00"
"06:44:57","40","38","92.7","30.33","145","0","0","0.00","0.00"
"06:49:58","40","38.1","93","30.33","145","0","0","0.00","0.00"
"06:54:56","39.9","38","93","30.33","145","0","0","0.00","0.00"
"06:59:56","39.8","37.9","93","30.33","145","0","0","0.00","0.00"
"07:04:56","39.6","37.6","92.2","30.32","145","0","0","0.00","0.00"
"07:09:58","39.6","37.7","92.9","30.32","145","0","0","0.00","0.00"
"07:14:56","39.6","37.7","93","30.33","145","0","0","0.00","0.00"
"07:19:58","39.5","37.6","93","30.33","145","0","0","0.00","0.00"
"07:24:56","39.4","37.5","93","30.33","145","0","0","0.00","0.00"
"07:29:58","39.2","37.3","93","30.34","145","0","0","0.00","0.00"
"07:34:57","39.1","37.2","93","30.34","145","0","0","0.00","0.00"
"07:39:56","39.2","37.3","93","30.34","145","0","0","0.00","0.00"
"07:44:59","39.2","37.3","93","30.34","145","0","0","0.00","0.00"
"07:49:57","39.2","37.3","93","30.34","145","0","0","0.00","0.00"
"07:54:59","39.3","37.4","93","30.34","145","0","0","0.00","0.00"
"07:59:58","39.3","37.4","93","30.34","145","0","0","0.00","0.00"
"08:04:57","39.3","37.4","93","30.34","145","0","0","0.00","0.00"
"08:09:56","39.4","37.7","93.9","30.34","145","0","0","0.00","0.00"
"08:14:56","39.6","38","94","30.34","145","0.1","1.2","0.00","0.00"
"08:19:57","39.9","38.3","94","30.34","145","0","1.2","0.00","0.00"
"08:24:59","40.2","38.6","94","30.34","145","0","1.2","0.00","0.00"
"08:29:57","40.6","39","94.2","30.34","145","0","0","0.00","0.00"
"08:34:58","41","39.7","95","30.34","145","0","0","0.00","0.00"
"08:39:56","41.4","40.1","95","30.34","145","0","0","0.00","0.00"
"08:44:57","41.9","40.6","95","30.35","145","0","1.2","0.00","0.00"
"08:49:56","42.8","41.5","95","30.35","145","0","1.2","0.00","0.00"
"08:54:58","43.7","42.4","95","30.35","145","0.1","1.2","0.00","0.00"
"08:59:59","45","43.5","94.3","30.35","145","0","1.2","0.00","0.00"
"09:04:58","47.7","44.2","87.8","30.35","145","0","1.2","0.00","0.00"
"09:09:56","48.7","44","83.6","30.35","145","0.6","2.4","0.00","0.00"
"09:14:59","49.7","44.5","82.1","30.36","145","0","1.2","0.00","0.00"
"09:19:56","50.4","44.3","79.6","30.36","145","0","0","0.00","0.00"
"09:24:58","51","44.6","78.9","30.36","145","0.7","3.6","0.00","0.00"
"09:29:56","51.4","44.7","77.5","30.36","146","2.1","4.8","0.00","0.00"
"09:34:58","52.2","45.2","76.8","30.35","146","0.7","2.4","0.00","0.00"
"09:39:56","52.8","45.2","75.1","30.35","146","1.5","3.6","0.00","0.00"
"09:44:58","53.4","45.4","74.3","30.35","147","1.2","3.6","0.00","0.00"
"09:49:59","53.8","45.5","73.4","30.35","147","0.8","3.6","0.00","0.00"
"09:54:57","54.5","45.3","71.1","30.35","147","1.4","3.5","0.00","0.00"
"09:59:58","54.9","45.4","70.4","30.35","146","1.5","3.6","0.00","0.00"
"10:04:57","55.9","45.7","68.4","30.35","147","1.7","3.6","0.00","0.00"
"10:09:59","56.9","46.3","67.5","30.35","147","0.4","2.4","0.00","0.00"
"10:14:58","57.7","46.7","66.7","30.35","147","1","3.6","0.00","0.00"
"10:19:56","58.2","46.5","65.1","30.35","148","1.2","3.5","0.00","0.00"
"10:24:58","58.4","46.7","65","30.35","148","0.3","2.4","0.00","0.00"
"10:29:59","59","46.2","62.6","30.35","149","1","6","0.00","0.00"
"10:34:57","59.3","47","63.8","30.35","200","2.7","6","0.00","0.00"
"10:39:56","59.7","46.8","62.3","30.35","200","2","3.6","0.00","0.00"
"10:44:58","60","46.5","61","30.35","204","2.2","4.8","0.00","0.00"
"10:49:59","60.9","47.2","60.7","30.35","203","1.4","4.6","0.00","0.00"
"10:54:57","61.5","48.1","61.3","30.35","189","1.6","3.6","0.00","0.00"
"10:59:59","61.8","48.2","61.1","30.35","173","1","3.6","0.00","0.00"
"11:04:58","62.2","48.2","60.3","30.34","173","1.5","3.6","0.00","0.00"
"11:09:56","62.4","48.2","59.8","30.34","173","1.7","4.8","0.00","0.00"
"11:14:56","62.4","48.8","60.9","30.34","173","1.5","4.8","0.00","0.00"
"11:19:58","63","48.1","58.3","30.34","173","2","3.6","0.00","0.00"
"11:24:56","63.4","48.5","58.3","30.34","172","1.1","3.6","0.00","0.00"
"11:29:57","64.8","49.1","56.7","30.34","105","1.1","4.8","0.00","0.00"
"11:34:56","65.4","49.8","57.2","30.34","78","1.1","3.6","0.00","0.00"
"11:39:56","65.4","49.5","56.5","30.34","78","0.9","3.6","0.00","0.00"
"11:44:59","65.8","49.3","55.4","30.34","78","0.6","2.4","0.00","0.00"
"11:49:57","65.7","49.3","55.4","30.33","78","0.7","3.6","0.00","0.00"
"11:54:56","66.1","49.3","54.6","30.33","78","0.6","2.4","0.00","0.00"
"11:59:58","67","50.3","55","30.33","78","0.6","2.4","0.00","0.00"
"12:04:57","67.3","49.8","53.4","30.33","78","1.1","2.4","0.00","0.00"
"12:09:56","66.9","49.9","54.3","30.33","79","0.7","2.4","0.00","0.00"
"12:14:59","67.5","50.1","53.5","30.33","79","0.8","2.4","0.00","0.00"
"12:19:58","68.5","50.9","53.4","30.32","91","0.8","3.6","0.00","0.00"
"12:24:57","68.4","50.4","52.8","30.32","96","0.5","1.2","0.00","0.00"
"12:29:56","68.4","50.4","52.7","30.32","102","0.8","4.8","0.00","0.00"
"12:34:59","69.2","50.5","51.5","30.32","144","2.4","4.8","0.00","0.00"
"12:39:59","69.7","49.9","49.5","30.32","154","1.5","3.6","0.00","0.00"
"12:44:58","70.2","51.3","51.3","30.32","154","1.3","3.6","0.00","0.00"
"12:49:59","70.8","51.4","50.2","30.31","155","1.2","3.6","0.00","0.00"
"12:54:57","71.6","50.8","47.9","30.31","155","1.1","2.4","0.00","0.00"
"12:59:59","71.9","50.9","47.7","30.31","155","1.4","3.6","0.00","0.00"
"13:04:58","72","50.4","46.6","30.30","146","1.8","4.8","0.00","0.00"
"13:09:57","71.7","51.3","48.6","30.30","140","0.2","2.3","0.00","0.00"
"13:14:56","72.1","51.9","49.1","30.30","140","0.9","3.6","0.00","0.00"
"13:19:58","72.8","51.3","47","30.29","154","1.9","6","0.00","0.00"
"13:24:56","72.9","50.7","45.7","30.29","166","2.7","4.8","0.00","0.00"
"13:29:58","72.5","49.7","44.7","30.29","147","1.7","3.6","0.00","0.00"
"13:34:57","73","51.1","46.3","30.29","138","0.9","3.6","0.00","0.00"
"13:39:56","73","50.6","45.4","30.29","137","1","3.5","0.00","0.00"
"13:44:59","74.4","52.1","45.8","30.29","137","0.8","3.6","0.00","0.00"
"13:49:57","74.7","50.9","43.4","30.28","139","1.3","3.6","0.00","0.00"
"13:54:59","74.9","51.8","44.6","30.28","147","2","4.8","0.00","0.00"
"13:59:57","74.9","49.9","41.5","30.28","165","1.5","4.6","0.00","0.00"
"14:04:57","74.5","50","42.2","30.27","166","0.9","3.5","0.00","0.00"
"14:09:59","74.5","50.3","42.6","30.27","166","0.5","3.6","0.00","0.00"
"14:14:59","75","48.6","39.5","30.27","167","1.5","3.6","0.00","0.00"
"14:19:57","75.1","48.1","38.4","30.27","191","1.4","3.6","0.00","0.00"
"14:24:56","75.4","47.8","37.7","30.27","171","1.8","4.8","0.00","0.00"
"14:29:59","75.6","47.7","37.3","30.27","168","0.8","3.6","0.00","0.00"
"14:34:58","76.4","48","36.8","30.27","143","0.8","3.6","0.00","0.00"
"14:39:58","76.3","48.1","37","30.27","143","1.2","3.6","0.00","0.00"
"14:44:57","76","46.7","35.5","30.27","143","1","2.4","0.00","0.00"
"14:49:56","76.2","47.7","36.5","30.26","143","1.1","3.6","0.00","0.00"
"14:54:56","76.9","48.3","36.7","30.26","145","1.7","4.8","0.00","0.00"
"14:59:58","77.6","48.7","36.4","30.26","147","0.8","3.5","0.00","0.00"
"15:04:58","77.5","47.8","35.1","30.25","147","0.6","2.4","0.00","0.00"
"15:09:56","75.8","46.8","35.8","30.25","147","0.5","2.3","0.00","0.00"
"15:14:56","75.5","47.6","37.2","30.25","147","0.8","2.4","0.00","0.00"
"15:19:58","77","46.7","34.3","30.25","147","1","3.6","0.00","0.00"
"15:24:57","78","47.4","34.1","30.25","148","1.6","3.6","0.00","0.00"
"15:29:59","78.4","46.3","32.3","30.25","148","0.6","2.4","0.00","0.00"
"15:34:59","77.2","46","33.2","30.24","139","1.5","3.6","0.00","0.00"
"15:39:58","76.1","46.6","35.3","30.24","138","0.5","2.4","0.00","0.00"
"15:44:57","76.2","46.1","34.4","30.25","138","1.3","3.6","0.00","0.00"
"15:49:56","77.8","47.7","34.8","30.25","138","1.2","3.6","0.00","0.00"
"15:54:56","78.9","45.8","31.2","30.25","138","0.9","3.6","0.00","0.00"
"15:59:59","78.9","46.8","32.4","30.25","138","1.9","4.8","0.00","0.00"
"16:04:56","79.5","47.3","32.4","30.25","138","1.4","4.6","0.00","0.00"
"16:09:56","80","45.3","29.5","30.25","138","1.2","3.6","0.00","0.00"
"16:14:57","79.6","44.8","29.3","30.25","140","1.3","4.8","0.00","0.00"
"16:19:56","79.1","43.5","28.4","30.25","142","2","3.6","0.00","0.00"
"16:24:59","78.2","44.1","29.8","30.25","195","2","4.8","0.00","0.00"
"16:29:58","77.5","44.4","31","30.25","192","1.9","4.8","0.00","0.00"
"16:34:57","77.1","44.8","31.7","30.24","192","2.1","4.6","0.00","0.00"
"16:39:57","77.1","44.8","31.9","30.24","192","1.3","3.6","0.00","0.00"
"16:44:56","77.5","44.4","31","30.24","192","1.3","3.6","0.00","0.00"
"16:49:59","78.2","46.7","33.1","30.24","192","1","3.6","0.00","0.00"
"16:54:58","78.7","45.5","31","30.24","171","0.9","3.6","0.00","0.00"
"16:59:56","78.4","45","30.6","30.24","167","0.2","2.4","0.00","0.00"
"17:04:56","78.6","46.7","32.6","30.24","167","0.8","3.6","0.00","0.00"
"17:09:56","78.9","45.9","31.2","30.24","167","0.2","2.4","0.00","0.00"
"17:14:57","79.4","45.5","30.3","30.24","167","0.7","2.4","0.00","0.00"
"17:19:56","79.4","45","29.6","30.24","167","0.4","2.4","0.00","0.00"
"17:24:56","79.3","45.5","30.4","30.24","167","0.4","2.4","0.00","0.00"
"17:29:56","79.1","46","31.1","30.24","167","0.2","2.3","0.00","0.00"
"17:34:56","79","48.8","34.8","30.24","167","0","0","0.00","0.00"
"17:39:56","78.6","49.4","36","30.24","167","0.1","1.2","0.00","0.00"
"17:44:56","77.6","48","35.3","30.25","167","0","0","0.00","0.00"
"17:49:56","76.5","48.6","37.4","30.25","167","0","0","0.00","0.00"
"17:54:56","75.4","48.6","38.9","30.25","167","0","0","0.00","0.00"
"17:59:59","74.1","48.6","40.5","30.26","167","0","0","0.00","0.00"
"18:04:58","73.1","48.1","41.2","30.26","167","0.2","2.4","0.00","0.00"
"18:09:57","72.6","48.1","41.9","30.26","167","0","1.2","0.00","0.00"
"18:14:57","72.3","48.4","42.8","30.26","167","0","0","0.00","0.00"
"18:19:56","71.7","48.5","43.8","30.26","167","0","0","0.00","0.00"
"18:24:56","71","49","45.8","30.26","167","0","0","0.00","0.00"
"18:29:58","70.2","49.8","48.4","30.27","167","0","0","0.00","0.00"
"18:34:58","69.3","50.2","50.6","30.27","167","0","0","0.00","0.00"
"18:39:58","68.6","50.2","51.9","30.27","167","0","0","0.00","0.00"
"18:44:57","67.8","49.9","52.7","30.27","167","0","1.2","0.00","0.00"
"18:49:56","67.1","49.9","53.9","30.27","167","0","1.2","0.00","0.00"
"18:54:59","66.6","49.9","55.1","30.27","167","0","1.2","0.00","0.00"
"18:59:58","66.1","50.1","56.4","30.27","167","0","0","0.00","0.00"
"19:04:58","65.6","50.3","57.8","30.27","167","0","0","0.00","0.00"
"19:09:56","65.1","50.4","59","30.27","167","0","0","0.00","0.00"
"19:14:56","64.8","50.6","60","30.28","167","0.1","2.4","0.00","0.00"
"19:19:59","64.7","50.9","61","30.28","167","0","1.2","0.00","0.00"
"19:24:58","64.6","50.8","61","30.28","167","0","0","0.00","0.00"
"19:29:58","64.5","50.7","60.9","30.28","167","0","0","0.00","0.00"
"19:34:58","64.3","50.9","61.7","30.28","167","0","0","0.00","0.00"
"19:39:57","64.1","50.7","61.9","30.28","167","0","0","0.00","0.00"
"19:44:56","63.8","51","63","30.28","167","0","0","0.00","0.00"
"19:49:59","63.5","50.9","63.5","30.28","167","0","0","0.00","0.00"
"19:54:58","63","50.6","63.8","30.28","167","0","0","0.00","0.00"
"19:59:56","62.8","50","63.2","30.28","167","0","0","0.00","0.00"
"20:04:56","62.7","50.1","63.6","30.28","167","0","0","0.00","0.00"
"20:09:58","62.6","49.9","63.4","30.28","167","0","0","0.00","0.00"
"20:14:59","62.5","49.2","61.7","30.28","167","0","0","0.00","0.00"
"20:19:57","62.4","49.8","63.3","30.28","167","0","0","0.00","0.00"
"20:24:56","62.3","49.6","63.2","30.28","167","0","0","0.00","0.00"
"20:29:59","62.3","49","61.7","30.28","167","0","0","0.00","0.00"
"20:34:58","62.3","48.9","61.3","30.28","167","0","0","0.00","0.00"
"20:39:58","62.4","49.4","62.3","30.28","167","0","0","0.00","0.00"
"20:44:57","62.5","49","61.4","30.28","167","0.2","1.2","0.00","0.00"
"20:49:59","62.8","48.1","58.6","30.28","167","0.2","2.4","0.00","0.00"
"20:54:57","63.2","47.5","56.6","30.28","167","0.2","2.4","0.00","0.00"
"20:59:59","63.8","47.1","54.6","30.28","167","0.3","1.2","0.00","0.00"
"21:04:59","64.1","47.4","54.6","30.28","167","0","0","0.00","0.00"
"21:09:57","64.2","47.2","53.9","30.28","167","0","0","0.00","0.00"
"21:14:58","64.2","46.6","52.8","30.28","168","0.3","2.4","0.00","0.00"
"21:19:56","64.2","46.7","53.1","30.27","167","0.9","3.6","0.00","0.00"
"21:24:59","64.2","45.9","51.4","30.27","167","0.6","3.5","0.00","0.00"
"21:29:58","64.3","45.6","50.6","30.27","167","0.6","2.4","0.00","0.00"
"21:34:57","64.6","45.3","49.7","30.27","167","0.7","2.4","0.00","0.00"
"21:39:57","64.8","45.4","49.5","30.27","167","0.6","2.4","0.00","0.00"
"21:44:55","65","45.2","48.7","30.28","166","0.6","3.6","0.00","0.00"
"21:49:57","65.2","45.1","48.3","30.28","166","0","2.3","0.00","0.00"
"21:54:56","65.3","45.3","48.5","30.28","166","0","0","0.00","0.00"
"21:59:58","65.3","45.2","48.3","30.28","166","0.9","3.6","0.00","0.00"
"22:04:58","65.1","45.8","49.7","30.28","166","0","1.2","0.00","0.00"
"22:09:56","64.9","45.6","49.5","30.28","166","0.7","3.6","0.00","0.00"
"22:14:57","64.8","45.7","50","30.28","167","0.3","1.2","0.00","0.00"
"22:19:56","64.7","45.6","50","30.27","166","0.5","2.4","0.00","0.00"
"22:24:59","64.6","46","50.8","30.27","167","0","1.2","0.00","0.00"
"22:29:57","64.5","45.6","50.3","30.27","167","0.8","3.6","0.00","0.00"
"22:34:56","64.4","46.3","51.8","30.27","164","0.7","3.6","0.00","0.00"
"22:39:56","64.1","46.1","52","30.27","162","0.2","2.4","0.00","0.00"
"22:44:59","63.9","45.8","51.7","30.28","163","0.3","2.3","0.00","0.00"
"22:49:57","63.8","45.5","51.5","30.28","162","0.8","2.4","0.00","0.00"
"22:54:56","63.7","45.2","51","30.28","162","1.8","3.6","0.00","0.00"
"22:59:59","63.7","45.5","51.8","30.28","161","0.5","2.4","0.00","0.00"
"23:04:59","63.3","46.4","54","30.27","162","0.2","1.2","0.00","0.00"
"23:09:57","62.8","46.4","55","30.27","161","0.2","2.4","0.00","0.00"
"23:14:57","62.3","45.8","54.7","30.27","162","0.3","2.4","0.00","0.00"
"23:19:56","62.1","45.8","55.3","30.27","161","0","0","0.00","0.00"
"23:24:59","61.7","45.8","55.9","30.27","162","0.1","1.2","0.00","0.00"
"23:29:57","61.3","46.2","57.5","30.28","161","0","1.2","0.00","0.00"
"23:34:57","60.9","46.1","58.2","30.28","161","0","1.2","0.00","0.00"
"23:39:56","60.3","46.4","59.9","30.28","161","0","0","0.00","0.00"
"23:44:59","59.9","45.9","60","30.28","162","0","0","0.00","0.00"
